Theta_e
334 334 335 335 336 336 335 336 335 334 333 333 334 336 337 338 338 338 337 337 336 336 336 335 336 335 334 334 335 335 335 335 336 336 335 336 335 334 333 332 332 332
332 333 333 334 334 334 334 334 334 334 334 334 334 335 336 336 336 337 337 337 336 337 336 336 336 335 334 335 335 334 334 334 335 335 335 335 335 334 333 332 332 331
331 332 332 333 333 333 334 334 333 333 334 335 334 334 335 335 335 335 336 336 336 336 336 336 335 335 335 335 335 334 334 334 334 334 334 335 334 333 333 333 332 332
329 330 331 331 332 332 333 333 333 333 334 334 334 334 334 334 334 334 334 335 335 336 336 336 335 335 335 335 335 334 334 334 334 333 333 334 334 333 333 333 333 332
328 328 329 330 331 332 332 332 332 332 333 333 333 334 334 334 334 334 333 334 336 336 335 335 335 335 334 335 334 334 333 333 333 333 333 333 334 333 333 334 333 332
326 327 328 329 330 331 332 332 332 332 333 332 332 332 334 334 334 334 333 332 334 335 333 333 335 335 335 334 334 334 334 334 334 333 332 332 332 333 333 333 332 332
326 326 327 328 329 330 330 331 331 331 332 333 333 332 332 332 332 333 332 331 333 334 334 334 334 334 335 334 334 334 334 333 333 332 332 333 333 333 333 332 332 332
325 326 327 327 328 329 330 330 331 331 331 332 334 333 331 331 331 331 331 331 332 334 335 335 335 335 335 334 334 334 334 333 333 332 332 332 332 332 332 332 332 332
324 325 325 326 327 328 329 330 331 331 331 332 332 333 331 330 330 331 331 331 331 334 335 334 334 334 333 334 333 333 333 333 333 332 332 331 331 331 332 332 331 331
323 323 324 324 324 325 326 328 330 330 331 331 331 331 331 330 329 330 331 331 331 332 333 334 334 332 331 332 333 333 332 332 332 332 332 331 330 331 332 331 330 331
321 322 322 323 323 324 324 326 327 329 330 331 331 331 331 330 330 329 330 330 331 332 331 331 332 332 331 332 333 333 332 332 332 331 332 332 332 333 332 330 330 332
320 321 321 322 323 323 324 325 326 327 329 330 330 330 330 331 331 330 329 330 331 331 331 331 332 332 331 331 332 333 333 333 332 331 332 332 332 332 331 330 331 333
319 320 320 321 322 323 324 325 326 326 327 328 329 329 330 330 330 330 330 331 331 331 330 331 332 332 331 331 332 333 333 333 332 331 332 332 331 330 329 330 331 332
319 319 320 321 322 322 323 324 325 326 327 328 329 329 329 329 329 329 329 331 332 331 330 331 331 331 331 331 332 333 333 333 332 331 331 331 331 330 330 331 332 332
318 318 320 321 321 322 321 322 322 323 325 326 328 329 329 329 329 329 329 330 332 331 329 330 330 330 331 331 331 332 333 333 332 331 330 331 331 330 331 332 332 332
317 317 319 320 320 320 320 320 319 319 321 322 325 327 328 328 329 329 329 329 331 331 329 330 330 330 330 331 332 332 333 333 332 332 331 331 331 330 331 332 332 331
316 317 318 319 319 319 318 317 317 317 317 317 319 323 326 327 328 328 328 328 329 330 330 330 331 331 330 331 332 332 333 333 332 331 332 331 331 330 329 330 330 330
314 316 317 318 318 318 317 316 315 315 314 313 315 318 322 325 327 327 328 327 327 329 330 329 330 331 330 331 332 331 331 332 332 331 331 330 330 328 327 327 329 329
313 315 316 317 317 316 316 315 314 313 312 311 312 314 317 321 323 325 327 327 327 329 329 328 328 330 330 330 331 330 329 330 331 331 330 329 328 328 327 327 328 328
313 314 315 316 316 315 314 314 313 312 311 310 310 312 314 316 318 321 323 325 327 328 328 327 327 328 328 329 330 329 327 328 329 329 329 328 328 327 327 327 328 328
313 313 313 315 315 314 313 313 312 311 310 309 309 309 310 312 314 316 318 320 322 324 325 326 326 326 326 328 329 328 327 327 327 326 326 326 327 327 326 327 327 326
313 312 312 313 314 313 313 312 311 310 309 308 308 308 307 309 311 312 313 315 317 319 320 321 322 323 325 327 327 327 327 327 326 325 325 326 327 326 324 326 327 326
312 312 312 312 313 313 312 311 310 309 308 307 307 306 305 305 307 308 310 312 313 314 315 316 317 320 323 326 326 326 326 326 326 326 325 325 326 324 323 325 326 326
311 311 311 312 312 311 311 310 309 308 308 307 306 305 304 304 304 305 307 308 309 310 312 313 315 318 321 324 324 324 325 325 324 324 323 322 323 323 322 324 324 324
310 310 311 311 311 311 309 308 308 308 307 306 305 305 304 304 303 303 303 305 306 308 310 313 314 316 319 321 322 322 323 322 321 321 321 319 319 320 320 321 322 322
308 308 309 310 311 311 309 307 307 307 307 306 306 305 305 304 304 303 302 302 304 306 308 310 313 315 317 320 320 320 320 321 320 319 318 317 317 316 317 317 318 318
Wind_Speed
11 12 13 13 12 13 13 13 14 15 15 16 17 16 14 14 15 16 16 17 17 16 16 16 19 20 20 19 20 19 16 15 14 12 12 13 13 15 16 17 18 18
11 12 13 13 14 14 14 15 16 16 16 17 19 19 18 16 16 16 16 16 16 16 16 18 20 19 19 20 19 19 18 16 15 14 14 13 15 17 17 17 19 18
11 12 13 14 15 16 16 17 18 16 16 17 20 21 20 19 19 18 18 18 17 15 16 19 19 18 20 20 18 17 18 16 14 15 16 15 17 18 18 17 18 18
12 13 13 14 15 16 17 18 18 17 16 17 17 18 21 21 21 20 19 20 18 16 17 18 19 19 20 19 18 17 18 17 16 16 15 15 17 18 18 18 19 20
13 14 14 15 15 16 18 18 18 17 16 17 16 16 19 21 20 20 21 21 19 19 19 19 19 21 21 19 19 18 19 20 17 15 14 15 17 18 19 19 18 20
14 15 15 15 15 17 19 19 19 18 16 17 17 17 18 19 19 21 24 23 20 20 21 19 19 21 20 20 19 18 19 19 16 16 17 17 18 18 17 18 18 19
15 15 15 16 16 17 18 19 19 19 17 15 15 17 21 21 21 22 24 25 23 20 18 17 19 20 21 20 19 18 18 18 18 19 18 18 19 18 18 21 20 20
16 15 15 16 17 17 18 18 19 19 17 15 15 17 20 23 22 22 23 26 25 20 17 17 18 20 21 21 21 20 19 18 20 21 18 18 20 20 23 24 22 20
15 15 15 16 17 17 18 18 19 19 17 15 16 16 17 20 21 21 23 25 24 21 19 18 18 21 22 22 22 21 20 19 22 22 20 21 22 23 25 25 24 24
15 15 15 16 16 17 18 18 19 20 18 16 17 17 17 18 19 21 21 21 23 24 19 15 16 21 24 24 24 22 20 19 22 22 22 23 22 22 23 24 25 24
16 16 16 17 17 18 18 19 19 19 18 17 18 18 17 16 17 19 21 21 22 22 20 18 18 19 21 22 22 21 19 19 21 22 22 22 20 20 22 23 23 21
17 17 17 17 18 18 19 20 20 19 19 18 18 18 17 15 15 18 21 20 20 21 20 18 16 18 20 19 18 19 18 17 19 20 20 20 19 20 23 22 20 19
18 17 17 18 18 19 19 20 21 19 19 19 18 18 17 17 17 19 20 19 21 22 19 16 15 18 20 18 16 15 15 17 19 20 19 19 18 20 22 21 19 18
18 17 17 18 19 18 18 20 21 21 20 19 18 17 17 18 18 18 19 18 20 20 18 16 18 19 18 18 16 15 16 17 17 18 18 18 17 17 18 17 16 15
17 17 17 18 19 19 19 20 21 22 21 20 20 19 17 16 16 18 20 17 14 14 15 15 16 17 18 18 17 16 16 15 15 16 17 16 15 14 14 13 12 13
16 17 18 18 18 19 20 21 21 21 21 21 21 20 19 17 15 17 19 17 12 11 13 14 12 14 16 16 15 16 15 14 14 15 16 16 16 15 13 11 11 13
17 17 18 18 18 19 20 21 22 21 21 22 21 21 20 18 17 17 17 16 14 11 13 14 13 13 14 14 17 17 15 14 14 14 15 17 17 16 16 14 13 13
18 18 18 18 19 20 20 21 22 21 21 23 23 22 21 18 16 17 16 15 14 11 13 14 14 13 13 14 18 18 15 13 14 13 15 18 17 17 18 16 16 14
18 18 19 19 19 20 20 21 22 21 22 23 23 23 21 19 17 15 14 13 11 9 11 13 13 14 16 16 16 16 14 12 12 11 13 16 16 17 18 16 17 16
19 18 19 19 20 20 20 21 22 22 21 21 22 23 22 20 18 16 14 11 9 8 9 10 11 13 17 18 16 15 13 11 11 11 13 15 15 16 16 16 16 18
20 19 18 19 20 20 21 21 22 22 21 20 21 21 20 18 16 14 13 12 9 6 5 7 10 13 16 18 17 15 14 12 10 10 13 14 14 13 13 12 10 14
20 19 19 19 20 20 21 21 22 21 20 19 19 19 18 18 16 14 12 10 8 5 1 3 8 10 12 15 15 14 13 11 10 10 11 10 8 8 7 5 5 9
19 19 19 19 19 20 20 20 20 20 19 19 19 19 19 18 16 15 13 11 9 7 5 2 1 3 8 11 12 11 10 9 8 8 7 8 10 10 8 4 3 4
17 18 19 19 19 19 19 19 19 19 19 18 17 17 18 18 16 16 17 17 15 13 10 8 8 5 4 7 6 6 7 5 5 9 12 13 14 13 10 9 9 9
16 16 17 19 19 18 18 17 18 18 18 17 15 16 17 18 18 19 21 23 22 19 16 15 15 13 10 9 7 5 6 6 6 11 14 14 15 17 16 15 15 14
16 15 15 17 19 19 18 17 16 17 18 17 15 15 16 18 18 19 22 24 25 25 24 22 21 18 14 11 8 6 7 7 8 12 14 15 17 18 20 20 18 18
Wind_Direction
309 305 302 298 291 284 280 278 275 272 270 267 265 260 252 247 244 241 238 234 229 226 224 221 222 223 221 220 216 210 209 208 206 206 204 204 204 205 214 219 219 215
312 307 304 302 297 291 288 285 280 276 272 267 262 257 253 248 246 245 244 240 232 226 224 219 217 216 214 217 217 211 210 207 203 207 205 199 201 204 213 222 220 213
315 311 306 301 295 291 289 285 280 276 273 269 263 259 256 252 248 247 246 244 236 227 224 221 217 213 214 215 213 211 212 207 203 208 205 199 201 206 211 220 220 213
321 315 307 300 294 290 287 284 281 276 269 267 268 266 263 258 254 251 248 244 237 228 223 222 218 213 213 212 210 211 212 208 206 204 201 200 199 202 208 215 222 218
322 315 307 302 297 292 287 283 283 280 272 267 268 270 268 264 261 258 254 247 237 231 227 223 220 216 213 212 210 211 212 211 207 200 196 201 202 203 207 212 217 216
323 318 312 306 300 296 293 289 285 283 280 272 265 265 267 267 265 260 257 252 244 238 233 225 221 218 214 213 211 209 213 214 209 203 201 204 206 206 206 208 210 212
326 321 315 310 305 301 298 296 291 287 284 275 264 262 262 263 262 259 257 254 248 241 234 226 220 216 212 210 209 207 209 213 209 206 206 207 206 206 209 208 207 209
326 323 320 316 312 306 301 298 295 292 288 275 264 262 262 263 262 260 259 257 254 244 233 229 222 215 210 207 208 205 201 203 204 202 206 213 212 209 210 209 206 205
328 327 325 322 317 312 308 304 300 299 294 279 267 263 263 266 266 264 263 264 267 261 245 233 224 218 216 210 206 203 199 200 202 202 205 212 213 207 204 206 207 203
333 330 328 327 323 318 314 311 307 305 301 290 279 271 267 269 271 271 272 273 276 273 263 247 235 229 224 213 205 203 201 201 202 205 208 209 210 206 203 205 205 200
338 336 333 332 328 323 319 315 311 308 305 299 290 281 273 271 271 272 274 273 273 275 270 260 249 241 233 219 205 201 200 200 202 204 208 209 210 208 204 205 202 196
342 341 339 337 334 329 323 318 314 308 304 301 296 291 283 275 269 268 271 270 269 270 266 261 252 245 246 236 212 201 198 198 202 201 201 205 210 212 209 206 202 196
346 345 343 341 338 333 326 322 319 313 305 300 297 294 286 276 268 267 271 269 266 264 259 258 253 244 248 246 221 204 200 199 202 201 198 201 207 215 213 206 200 198
349 348 346 343 341 340 335 329 326 322 315 305 297 291 284 280 274 270 270 264 262 261 254 255 253 239 238 238 222 209 204 200 200 199 198 201 207 219 218 204 198 200
351 349 347 344 343 344 343 338 332 328 324 315 304 294 286 284 279 274 273 267 263 259 247 250 252 237 230 228 217 208 203 196 197 199 199 203 207 220 223 205 196 202
352 350 348 347 347 347 345 343 338 333 330 325 318 306 294 288 282 279 277 271 264 251 237 238 237 223 221 220 211 207 200 192 194 195 197 202 202 209 218 208 200 206
355 353 351 350 351 350 348 346 342 339 336 334 333 326 313 300 287 279 275 269 260 241 228 230 223 208 210 216 214 207 195 189 195 195 197 201 199 206 218 211 201 204
358 356 354 353 354 354 352 349 346 345 344 343 344 342 335 325 305 288 279 272 262 240 224 226 223 210 205 211 212 206 195 190 197 202 203 199 198 213 224 210 190 190
0 359 358 357 358 357 354 353 351 350 349 349 350 350 349 347 336 319 301 285 272 249 227 218 215 211 206 206 210 208 202 195 196 206 208 202 205 218 227 217 193 185
5 3 2 1 2 0 358 358 356 354 352 352 354 356 355 352 348 345 335 317 295 266 233 204 200 206 204 205 207 203 202 202 204 214 213 210 214 218 227 232 202 177
8 5 3 3 3 3 3 2 359 357 355 355 357 358 358 354 350 351 352 349 336 298 245 201 209 213 202 201 201 199 206 211 213 225 220 211 214 212 222 241 213 173
9 7 5 4 4 6 6 4 2 0 358 358 358 359 2 3 2 4 4 4 1 351 326 206 227 222 201 197 199 202 212 213 213 232 227 201 187 184 189 219 216 184
9 8 7 5 6 8 8 6 6 5 3 3 4 5 7 8 9 15 22 23 24 29 36 28 304 223 197 197 198 199 206 206 201 203 184 140 132 146 154 135 131 161
8 9 10 9 9 9 9 9 10 10 10 10 12 14 15 15 15 23 36 44 47 51 59 63 58 67 144 168 178 191 193 191 167 143 127 113 115 126 129 119 116 117
10 9 10 11 13 13 13 15 16 15 16 18 21 20 20 23 25 29 38 45 49 54 64 74 73 71 90 110 111 133 149 136 125 129 124 113 109 110 107 109 114 116
14 13 12 14 17 20 23 24 23 22 22 23 25 23 21 26 30 33 37 41 47 52 58 65 69 69 75 88 91 107 134 141 137 133 126 116 111 109 104 102 106 113